Weather History for Mobile, AL

Change the Weather History Date:

Thursday, December 13, 2012

  Actual Average Record
Temperature  
Mean Temperature 48 °F 53 °F  
Max Temperature 63 °F 63 °F 79 °F (2007)
Min Temperature 33 °F 43 °F 10 °F (1962)
Degree Days  
Heating Degree Days 17 13  
Month to date heating degree days 60 151  
Since 1 July heating degree days 373 409  
Cooling Degree Days 0 0  
Month to date cooling degree days 9 8  
Year to date cooling degree days 2706 2511  
Moisture  
Dew Point 34 °F    
Average Humidity 59    
Maximum Humidity 82    
Minimum Humidity 36    
Precipitation  
Precipitation 0.00 in 0.15 in 4.18 in (1885)
Month to date precipitation 0.47 2.08  
Year to date precipitation 66.09 63.17  
Snow  
Snow 0.00 in 0.00 in 0.00 in (2002)
Month to date snowfall 0.0 0.0  
Since 1 July snowfall 0.0 0.0  
Snow Depth 0.00 in    
Sea Level Pressure  
Sea Level Pressure 30.29 in    
Wind  
Wind Speed 6 mph (NNE)    
Max Wind Speed 13 mph    
Max Gust Speed 18 mph    
Visibility 10 miles    
Events      
T = Trace of Precipitation, MM = Missing Value Source: NWS Daily Summary

Daily Weather History Graph

Daily Weather History Graph

Search for Another Location

Airport:

Trip Planner

Search our weather history database for the weather conditions in past years. The results will help you decide how hot, cold, wet, or windy it might be!

Date:

Astronomy

Dec. 13, 2012 Rise Set
Actual Time 6:41 AM CST 4:52 PM CST
Civil Twilight 6:15 AM CST 5:19 PM CST
Nautical Twilight 5:45 AM CST 5:49 PM CST
Astronomical Twilight 5:15 AM CST 6:18 PM CST
Moon 6:51 AM CST (12/13) 5:33 PM CST (12/13)
Length of Visible Light 11h 04m
Length of Day
10h 11m
New Moon, 0% of the Moon is Illuminated
Dec 13
New Moon
Dec 19
First Quarter
Dec 28
Full
Jan 4
Last Quarter
Jan 11
New

Hourly Weather History & Observations

Time (CST) Temp. Windchill Dew Point Humidity Pressure Visibility Wind Dir Wind Speed Gust Speed Precip Events Conditions
12:56 AM 37.0 °F 31.6 °F 28.9 °F 73% 30.27 in 10.0 mi North 6.9 mph - N/A   Clear
1:56 AM 39.0 °F 31.8 °F 28.0 °F 65% 30.26 in 10.0 mi North 11.5 mph - N/A   Clear
2:56 AM 37.0 °F 32.4 °F 28.0 °F 70% 30.26 in 10.0 mi NNE 5.8 mph - N/A   Clear
3:56 AM 36.0 °F 33.3 °F 28.0 °F 73% 30.27 in 10.0 mi North 3.5 mph - N/A   Clear
4:56 AM 33.1 °F 28.7 °F 28.0 °F 82% 30.28 in 10.0 mi NNW 4.6 mph - N/A   Clear
5:56 AM 35.1 °F 28.6 °F 28.0 °F 76% 30.29 in 10.0 mi North 8.1 mph - N/A   Clear
6:56 AM 36.0 °F 29.0 °F 28.0 °F 73% 30.32 in 10.0 mi North 9.2 mph - N/A   Clear
7:56 AM 41.0 °F 34.7 °F 30.9 °F 67% 30.33 in 10.0 mi NNE 10.4 mph - N/A   Clear
8:56 AM 46.9 °F - 35.1 °F 63% 30.34 in 10.0 mi NNE 11.5 mph - N/A   Clear
9:56 AM 51.1 °F - 37.0 °F 59% 30.35 in 10.0 mi NNE 9.2 mph - N/A   Clear
10:56 AM 55.0 °F - 39.0 °F 55% 30.33 in 10.0 mi NNE 11.5 mph - N/A   Clear
11:56 AM 57.9 °F - 37.9 °F 47% 30.32 in 10.0 mi ENE 9.2 mph - N/A   Clear
12:56 PM 61.0 °F - 36.0 °F 39% 30.28 in 10.0 mi NNE 8.1 mph - N/A   Clear
1:56 PM 62.1 °F - 37.0 °F 39% 30.25 in 10.0 mi NNE 4.6 mph - N/A   Clear
2:56 PM 63.0 °F - 36.0 °F 37% 30.25 in 10.0 mi North 9.2 mph - N/A   Partly Cloudy
3:56 PM 61.0 °F - 35.1 °F 38% 30.25 in 10.0 mi North 5.8 mph - N/A   Clear
6:56 PM 45.0 °F - 37.9 °F 76% 30.29 in 10.0 mi Calm Calm - N/A   Clear
7:56 PM 43.0 °F 41.3 °F 37.9 °F 82% 30.28 in 8.0 mi NNE 3.5 mph - N/A   Clear
8:56 PM 41.0 °F 39.0 °F 36.0 °F 82% 30.29 in 8.0 mi NNE 3.5 mph - N/A   Partly Cloudy
9:56 PM 42.1 °F - 37.0 °F 82% 30.30 in 10.0 mi Calm Calm - N/A   Clear
10:56 PM 42.1 °F 38.4 °F 36.0 °F 79% 30.29 in 10.0 mi NNE 5.8 mph - N/A   Clear
11:56 PM 43.0 °F 41.3 °F 36.0 °F 76% 30.28 in 10.0 mi NE 3.5 mph - N/A   Clear